GW0714 Weather Reports


Display with metric or nautical units.
time (UTC)temp
F
wind
direction
speed
MPH
gust
MPH
rain 1hr
in
rain 24hr
in
rain mn
in
humidity
%
barometer
mb
20260506073041 54 0 0.0 0.0 0.01 0.27 0.01 88 1018.5
20260506072531 54 0 0.0 0.0 0.02 0.27 0.01 88 1018.4
20260506072029 54 0 0.0 0.0 0.01 0.26 0.00 88 1018.4
20260506071542 54 0 0.0 0.0 0.01 0.26 0.00 88 1018.4
20260506071030 54 0 0.0 0.0 0.01 0.26 0.00 88 1018.3
20260506070533 54 0 0.0 1.0 0.01 0.26 0.00 88 1018.2
20260506062030 54 0 0.0 0.0 0.01 0.26 0.25 89 1018.2
20260506061556 54 0 0.0 0.0 0.01 0.26 0.25 89 1018.0
20260506061030 54 0 0.0 0.0 0.01 0.26 0.25 89 1018.0
20260506060530 54 0 0.0 0.0 0.02 0.26 0.25 89 1018.0
20260506051030 54 0 0.0 0.0 0.02 0.25 0.24 88 1017.4
20260506050530 54 0 0.0 0.0 0.01 0.24 0.23 88 1017.4
20260506045029 54 0 0.0 1.0 0.02 0.25 0.23 88 1017.4
20260506044541 54 0 0.0 1.0 0.02 0.25 0.23 88 1017.4
20260506044031 54 0 0.0 1.0 0.02 0.25 0.23 88 1017.3
20260506043529 54 0 0.0 0.0 0.02 0.25 0.23 88 1017.2
20260506043038 54 0 0.0 0.0 0.02 0.25 0.23 88 1017.2
20260506042532 55 0 0.0 0.0 0.01 0.24 0.22 87 1017.2
20260506042032 55 0 0.0 0.0 0.01 0.24 0.22 87 1017.2
20260506041536 55 0 0.0 0.0 0.02 0.24 0.22 87 1017.1
20260506041032 55 0 0.0 1.0 0.02 0.24 0.22 87 1017.0
20260506040534 55 0 0.0 1.0 0.02 0.24 0.22 87 1017.0
20260506040038 55 0 0.0 0.0 0.02 0.24 0.22 87 1016.9
20260506035532 55 0 0.0 1.0 0.02 0.24 0.22 87 1016.8
20260506035029 55 0 0.0 2.0 0.01 0.23 0.21 86 1016.8
20260506034544 55 0 0.0 3.0 0.01 0.23 0.21 86 1016.6
20260506034030 55 0 0.0 3.0 0.01 0.23 0.21 86 1016.5
20260506033529 55 331 0.0 3.0 0.01 0.23 0.21 86 1016.4
20260506033043 55 0 0.0 1.0 0.02 0.23 0.21 86 1016.5
20260506032532 55 0 0.0 0.0 0.02 0.23 0.21 86 1016.4
20260506032033 55 0 0.0 0.0 0.02 0.23 0.21 86 1016.6
20260506031542 55 0 0.0 0.0 0.01 0.22 0.20 86 1016.5
20260506031032 55 0 0.0 0.0 0.01 0.22 0.20 86 1016.3
20260506030533 55 0 0.0 1.0 0.01 0.22 0.20 85 1016.3
20260506030038 55 0 0.0 1.0 0.01 0.22 0.20 85 1016.4
20260506025533 55 0 0.0 3.0 0.01 0.23 0.20 85 1016.2
20260506025031 55 0 0.0 3.0 0.01 0.23 0.20 85 1016.2
20260506024540 55 0 0.0 3.0 0.01 0.23 0.20 85 1016.1
20260506024029 56 0 0.0 4.0 0.02 0.23 0.20 84 1016.0
20260506023533 56 343 0.0 4.0 0.02 0.23 0.20 84 1015.9
20260506023048 56 335 1.0 5.0 0.01 0.22 0.19 84 1015.8
20260506022531 56 337 0.0 5.0 0.01 0.22 0.19 84 1015.8
20260506022029 56 334 2.0 5.0 0.01 0.22 0.19 83 1015.7
20260506021533 57 329 0.0 2.0 0.01 0.22 0.19 83 1015.6
20260506021029 57 289 0.0 1.0 0.01 0.22 0.19 82 1015.6
20260506020530 57 0 0.0 3.0 0.01 0.22 0.19 82 1015.6
20260506020108 57 0 0.0 5.0 0.01 0.22 0.19 82 1015.4
20260506015529 57 295 1.0 5.0 0.01 0.22 0.19 81 1015.3
20260506015032 57 290 0.0 4.0 0.01 0.22 0.19 81 1015.3
20260506014542 57 0 1.0 4.0 0.01 0.22 0.19 80 1015.3
20260506014028 57 287 0.0 2.0 0.00 0.21 0.18 80 1015.3
20260506013531 58 327 0.0 4.0 0.00 0.21 0.18 81 1015.4
20260506013039 58 0 1.0 4.0 0.00 0.21 0.18 80 1015.3
20260506012531 58 283 1.0 6.0 0.00 0.21 0.18 80 1015.2
20260506012031 58 0 1.0 6.0 0.00 0.21 0.18 80 1015.4
20260506011540 58 0 0.0 4.0 0.00 0.21 0.18 80 1015.4
20260506011030 58 298 0.0 4.0 0.00 0.21 0.18 80 1015.3
20260506010531 58 335 0.0 2.0 0.00 0.21 0.18 79 1015.3
20260506010037 58 0 0.0 0.0 0.00 0.21 0.18 80 1015.2
20260506005530 57 0 0.0 0.0 0.00 0.21 0.18 80 1015.3
20260506005029 57 0 0.0 0.0 0.00 0.21 0.18 81 1015.4
20260506004540 57 0 0.0 0.0 0.01 0.21 0.18 81 1015.4
20260506004034 57 0 0.0 0.0 0.01 0.21 0.18 81 1015.4
20260506003533 57 0 0.0 0.0 0.01 0.21 0.18 82 1015.3
20260506003043 57 0 0.0 0.0 0.01 0.21 0.18 82 1015.3
20260506002528 56 0 0.0 0.0 0.01 0.21 0.18 82 1015.2
20260506002030 56 0 0.0 0.0 0.01 0.21 0.18 84 1015.2
20260506001546 56 0 0.0 0.0 0.01 0.21 0.18 84 1015.2
20260506001029 56 0 0.0 0.0 0.01 0.21 0.18 83 1015.2
20260506000530 56 0 0.0 0.0 0.01 0.21 0.18 83 1015.0
20260506000054 56 0 0.0 0.0 0.01 0.21 0.18 82 1015.0
20260505235528 56 0 0.0 0.0 0.01 0.22 0.18 82 1015.1
20260505235033 56 0 0.0 0.0 0.01 0.22 0.18 82 1015.2
20260505234540 56 0 0.0 2.0 0.00 0.21 0.17 82 1015.1
20260505234031 56 0 0.0 2.0 0.00 0.21 0.17 81 1015.1
20260505233530 56 0 0.0 1.0 0.00 0.21 0.17 82 1015.1
20260505233035 56 352 0.0 2.0 0.00 0.21 0.17 82 1015.1
20260505232529 56 0 0.0 2.0 0.00 0.21 0.17 82 1015.1
20260505232030 56 0 0.0 3.0 0.00 0.21 0.17 83 1015.1
20260505231538 56 0 0.0 3.0 0.00 0.21 0.17 82 1015.1
20260505231033 56 360 0.0 3.0 0.00 0.21 0.17 84 1015.1
20260505230529 56 0 0.0 2.0 0.00 0.21 0.17 84 1015.1
20260505230046 56 180 0.0 1.0 0.00 0.21 0.17 84 1015.2
20260505225530 56 0 0.0 2.0 0.00 0.22 0.17 84 1015.2
20260505225031 56 0 0.0 5.0 0.00 0.22 0.17 83 1015.1
20260505224545 56 0 1.0 5.0 0.00 0.22 0.17 82 1015.2
20260505224030 56 0 1.0 4.0 0.00 0.22 0.17 81 1015.2
20260505223530 56 0 0.0 4.0 0.00 0.22 0.17 81 1015.2
20260505223040 56 17 0.0 4.0 0.00 0.22 0.17 81 1015.2
20260505222530 56 0 1.0 4.0 0.00 0.22 0.17 82 1015.1
20260505222028 56 100 0.0 3.0 0.00 0.22 0.17 82 1015.2
20260505221547 57 105 0.0 5.0 0.00 0.22 0.17 83 1015.3
20260505221030 56 0 0.0 5.0 0.00 0.22 0.17 83 1015.3
20260505220530 57 157 2.0 5.0 0.00 0.22 0.17 81 1015.2
20260505220034 56 336 0.0 3.0 0.01 0.22 0.17 84 1015.3
20260505215534 56 138 0.0 5.0 0.01 0.23 0.17 84 1015.4
20260505215032 56 0 1.0 5.0 0.01 0.23 0.17 82 1015.4
20260505214539 57 161 2.0 5.0 0.01 0.23 0.17 80 1015.5
20260505214029 57 49 1.0 5.0 0.01 0.23 0.17 82 1015.5
20260505213528 56 0 0.0 4.0 0.01 0.23 0.17 82 1015.6
20260505213041 56 350 0.0 4.0 0.01 0.23 0.17 83 1015.6
20260505212531 56 121 0.0 3.0 0.01 0.23 0.17 84 1015.6
20260505212030 56 0 0.0 4.0 0.01 0.23 0.17 84 1015.5
20260505211608 55 17 0.0 4.0 0.01 0.23 0.17 85 1015.6
20260505211029 55 0 1.0 3.0 0.01 0.23 0.17 83 1015.6
20260505210528 55 0 0.0 2.0 0.01 0.23 0.17 85 1015.5
20260505210043 55 0 0.0 3.0 0.00 0.22 0.16 87 1015.6
20260505205533 54 0 0.0 3.0 0.00 0.22 0.16 87 1015.5
20260505205030 54 156 1.0 5.0 0.00 0.22 0.16 86 1015.4
20260505204553 54 138 0.0 5.0 0.00 0.22 0.16 87 1015.5
20260505204028 54 139 0.0 3.0 0.00 0.22 0.16 88 1015.5
20260505203529 54 0 1.0 5.0 0.00 0.22 0.16 87 1015.4
20260505203042 53 165 1.0 5.0 0.00 0.22 0.16 88 1015.4
20260505202530 53 157 2.0 5.0 0.00 0.22 0.16 87 1015.5
20260505202033 53 0 1.0 4.0 0.00 0.22 0.16 87 1015.5
20260505201541 53 170 1.0 4.0 0.00 0.22 0.16 87 1015.5
20260505201029 53 136 1.0 5.0 0.00 0.22 0.16 87 1015.6
20260505200531 54 0 1.0 5.0 0.00 0.22 0.16 86 1015.6
20260505200039 54 155 1.0 4.0 0.00 0.22 0.16 86 1015.5
20260505195530 54 0 0.0 4.0 0.00 0.22 0.16 86 1015.6
20260505195029 54 144 1.0 4.0 0.00 0.22 0.16 84 1015.6
20260505194538 55 0 1.0 4.0 0.01 0.22 0.16 84 1015.5
20260505194035 55 352 1.0 4.0 0.01 0.22 0.16 83 1015.6
20260505193530 55 333 1.0 4.0 0.01 0.22 0.16 83 1015.7
20260505193045 55 323 0.0 4.0 0.01 0.22 0.16 84 1015.5
20260505192534 55 331 1.0 4.0 0.01 0.22 0.16 83 1015.6
20260505192030 55 327 2.0 4.0 0.01 0.22 0.16 84 1015.5
20260505191536 55 0 1.0 4.0 0.01 0.22 0.16 84 1015.6
20260505191030 55 329 0.0 4.0 0.01 0.22 0.16 84 1015.5
20260505190531 55 339 0.0 3.0 0.01 0.22 0.16 85 1015.5
20260505190038 55 0 0.0 2.0 0.01 0.22 0.16 83 1015.4
20260505185530 55 0 0.0 4.0 0.01 0.22 0.16 83 1015.4
20260505185032 55 360 0.0 4.0 0.01 0.22 0.16 83 1015.4
20260505184542 55 98 0.0 4.0 0.00 0.21 0.15 83 1015.3
20260505184028 55 338 1.0 4.0 0.00 0.21 0.15 83 1015.4
20260505183531 55 0 0.0 3.0 0.00 0.21 0.15 82 1015.4
20260505183036 55 0 0.0 3.0 0.00 0.21 0.15 81 1015.4
20260505182530 55 153 0.0 3.0 0.01 0.21 0.15 82 1015.4
20260505182029 56 45 0.0 4.0 0.01 0.21 0.15 83 1015.3
20260505181554 56 0 1.0 4.0 0.01 0.21 0.15 81 1015.3
20260505181033 55 352 1.0 4.0 0.01 0.21 0.15 82 1015.2
20260505180531 55 360 1.0 5.0 0.01 0.21 0.15 83 1015.2
20260505180033 54 254 0.0 5.0 0.01 0.21 0.15 84 1015.2
20260505175531 54 148 0.0 3.0 0.01 0.21 0.15 84 1015.2
20260505175029 54 0 1.0 3.0 0.01 0.21 0.15 83 1015.1
20260505174538 54 0 0.0 4.0 0.01 0.21 0.15 85 1015.2
20260505174031 54 0 1.0 4.0 0.01 0.21 0.15 82 1015.2
20260505173529 54 350 2.0 4.0 0.01 0.21 0.15 84 1015.1
20260505173041 54 0 0.0 3.0 0.01 0.21 0.15 86 1015.0
20260505172531 53 0 0.0 4.0 0.00 0.20 0.14 85 1015.1
20260505172031 53 342 2.0 4.0 0.00 0.20 0.14 85 1015.2
20260505171542 53 13 1.0 4.0 0.00 0.20 0.14 85 1015.2
20260505171030 53 331 0.0 4.0 0.00 0.20 0.14 89 1015.2
20260505170531 53 325 1.0 4.0 0.01 0.20 0.14 89 1015.0
20260505170038 52 333 0.0 3.0 0.01 0.20 0.14 91 1015.1
20260505165530 52 0 0.0 3.0 0.01 0.20 0.14 91 1015.1
20260505165032 51 334 1.0 3.0 0.01 0.20 0.14 90 1015.1
20260505164535 51 327 0.0 3.0 0.01 0.20 0.14 92 1015.1
20260505164030 51 329 1.0 3.0 0.01 0.20 0.14 92 1015.1
20260505163531 51 0 0.0 3.0 0.01 0.20 0.14 94 1015.0
20260505163046 50 0 1.0 3.0 0.01 0.20 0.14 94 1015.0
20260505162528 50 0 0.0 4.0 0.01 0.20 0.14 95 1015.0
20260505162031 50 344 1.0 4.0 0.01 0.20 0.14 95 1014.9
20260505161541 49 348 1.0 4.0 0.01 0.20 0.14 94 1014.9
20260505161030 49 333 2.0 4.0 0.01 0.20 0.14 95 1014.8
20260505160531 49 360 1.0 4.0 0.00 0.19 0.13 95 1014.7
20260505153046 48 0 0.0 4.0 0.01 0.19 0.13 96 1014.7
20260505152529 48 0 0.0 3.0 0.01 0.19 0.13 96 1014.7
20260505152029 48 0 0.0 3.0 0.01 0.19 0.13 96 1014.6
20260505151545 48 311 0.0 3.0 0.01 0.19 0.13 96 1014.5
20260505151030 48 0 0.0 3.0 0.01 0.19 0.13 96 1014.6
20260505150530 48 0 0.0 3.0 0.01 0.19 0.13 96 1014.5
20260505140530 48 0 0.0 3.0 0.01 0.18 0.12 96 1013.8
20260505125029 48 265 0.0 1.0 0.02 0.17 0.11 96 1013.5
20260505124538 48 0 0.0 2.0 0.01 0.16 0.10 96 1013.6
20260505124033 48 0 0.0 2.0 0.01 0.16 0.10 96 1013.5
20260505123530 48 0 0.0 2.0 0.01 0.16 0.10 96 1013.4
20260505123048 48 0 0.0 1.0 0.01 0.16 0.10 96 1013.4
20260505122530 48 0 0.0 2.0 0.01 0.16 0.10 96 1013.4
20260505122031 48 0 0.0 2.0 0.02 0.16 0.10 96 1013.3
20260505121542 48 0 0.0 2.0 0.02 0.16 0.10 96 1013.3
20260505121030 48 0 0.0 2.0 0.02 0.16 0.10 96 1013.4
20260505120530 47 265 0.0 2.0 0.02 0.16 0.10 96 1013.3
20260505115529 48 0 0.0 2.0 0.01 0.15 0.09 96 1013.4
20260505115027 48 0 0.0 2.0 0.01 0.15 0.09 96 1013.4
20260505114535 48 0 0.0 1.0 0.02 0.15 0.09 96 1013.4
20260505114030 48 0 0.0 1.0 0.02 0.15 0.09 96 1013.5
20260505113530 48 294 0.0 1.0 0.02 0.15 0.09 96 1013.5
20260505113038 48 0 0.0 1.0 0.02 0.15 0.09 96 1013.5
20260505112529 48 0 0.0 2.0 0.01 0.14 0.08 96 1013.6
20260505112030 48 0 0.0 2.0 0.01 0.14 0.08 96 1013.7
20260505111538 47 0 0.0 1.0 0.01 0.14 0.08 96 1013.7
20260505111033 47 0 0.0 1.0 0.02 0.14 0.08 96 1013.6
20260505110530 47 271 0.0 1.0 0.02 0.14 0.08 96 1013.6
20260505110105 47 0 0.0 1.0 0.02 0.14 0.08 96 1013.6
20260505102030 47 268 0.0 3.0 0.02 0.13 0.07 96 1013.7
20260505101536 47 278 0.0 3.0 0.03 0.13 0.07 96 1013.7
20260505101029 47 287 0.0 3.0 0.02 0.12 0.06 96 1013.7
20260505100529 47 275 0.0 3.0 0.02 0.12 0.06 96 1013.6
20260505100037 47 0 0.0 2.0 0.02 0.12 0.06 96 1013.7
20260505095530 47 0 0.0 1.0 0.02 0.12 0.06 96 1013.7
20260505095030 47 0 0.0 2.0 0.02 0.12 0.06 96 1013.8
20260505094543 48 0 0.0 2.0 0.02 0.11 0.05 96 1013.8
20260505094029 47 0 0.0 2.0 0.02 0.11 0.05 96 1013.8
20260505093530 47 0 0.0 3.0 0.02 0.11 0.05 96 1013.8
20260505093042 47 251 0.0 3.0 0.02 0.11 0.05 96 1013.9
20260505092530 47 283 1.0 3.0 0.03 0.11 0.05 96 1013.8
20260505092030 48 277 1.0 2.0 0.03 0.11 0.05 96 1013.9
20260505091552 48 257 0.0 2.0 0.02 0.10 0.04 96 1014.1
20260505091030 48 269 0.0 2.0 0.02 0.10 0.04 96 1014.0
20260505090529 48 0 0.0 1.0 0.02 0.10 0.04 96 1014.1
20260505090041 48 0 0.0 1.0 0.03 0.10 0.04 96 1014.2
20260505085530 48 0 0.0 1.0 0.03 0.10 0.04 96 1014.2
20260505085030 48 0 0.0 1.0 0.03 0.10 0.04 96 1014.3
20260505084542 48 0 0.0 1.0 0.02 0.09 0.03 96 1014.3
20260505084029 48 243 0.0 1.0 0.02 0.09 0.03 96 1014.4
20260505083533 48 0 0.0 2.0 0.02 0.09 0.03 96 1014.4
20260505083044 48 0 0.0 2.0 0.03 0.09 0.03 96 1014.5
20260505082530 48 0 0.0 2.0 0.02 0.08 0.02 96 1014.6
20260505082031 48 0 0.0 2.0 0.02 0.08 0.02 96 1014.6
20260505081539 48 0 0.0 1.0 0.02 0.08 0.02 96 1014.6
20260505081032 48 0 0.0 2.0 0.02 0.08 0.02 96 1014.6
20260505080533 48 263 0.0 2.0 0.02 0.08 0.02 96 1014.6